Location: Borderline Observatory
(42.7345°N, 72.8696°W)
Time: 20:53:22
(UTC-04:00)

Daily predictions for brighter satellites

Satellite Brightness Start Highest point End
(mag) Time Altitude Azimuth Time Altitude Azimuth Time Altitude Azimuth
USA 267 3.6 20:00:32 10° NE 20:07:04 74° NW 20:13:35 10° WSW
Spot 2 Rocket 3.5 20:06:44 10° SSE 20:11:49 78° ENE 20:16:55 10° N
Milstar 3 4.1 20:06:02 10° WSW 20:13:15 28° S 20:18:53 10° SE
OAO 3 Rocket 4.3 20:09:52 10° SW 20:14:04 29° S 20:18:20 10° ESE
Cosmos 2297 Rocket 4.2 20:09:20 10° NW 20:14:08 29° WSW 20:18:56 10° SSW
Cosmos 1869 4.0 20:11:03 10° SSE 20:14:36 34° E 20:18:12 10° NNE
FENGYUN 3A 4.4 20:10:10 10° S 20:15:25 57° W 20:20:42 10° NNW
Resurs 01 Rocket 1.7 20:11:53 10° SSE 20:16:20 86° WSW 20:20:49 10° NNW
Cosmos 1892 3.0 20:15:27 10° NNW 20:19:14 72° W 20:23:01 10° S
Cosmos 1400 Rocket 3.4 20:17:38 10° NNW 20:21:29 59° W 20:25:20 10° S
Cosmos 2263 Rocket 3.3 20:17:07 10° N 20:21:53 28° NE 20:26:37 10° ESE
GRACE-1 3.7 20:20:52 10° N 20:23:38 70° E 20:26:21 10° S
GRACE-2 3.7 20:21:16 10° N 20:24:01 69° E 20:26:44 10° S
CZ-4B DEB 3.7 20:22:15 10° SE 20:24:56 28° ENE 20:27:37 10° N
YAOGAN 6 4.4 20:22:39 10° ESE 20:25:05 17° ENE 20:27:31 10° NNE
Meteor 1-29 3.8 20:24:19 10° NE 20:27:25 29° E 20:30:29 10° SSE
Cosmos 2322 Rocket 2.7 20:22:47 10° S 20:27:54 38° ESE 20:33:03 10° NE
H-2A R/B 3.9 20:25:59 10° S 20:29:45 47° W 20:33:31 10° NNW
Envisat 3.2 20:26:51 10° SSE 20:31:45 52° ENE 20:36:41 10° N
Cosmos 1302 Rocket 4.0 20:27:08 10° SSW 20:32:20 89° ESE 20:37:34 10° NNE
Cosmos 220 Rocket 4.3 20:28:01 10° N 20:32:23 51° ENE 20:36:43 10° SE
Cosmos 1315 Rocket 2.9 20:31:00 10° NNW 20:35:06 81° W 20:39:07 10° S
Cosmos 2360 Rocket 3.5 20:35:01 10° SE 20:38:40 18° E 20:42:21 10° ENE
Cosmos 1933 4.5 20:35:43 10° SE 20:38:59 24° E 20:42:17 10° NE
Cosmos 1980 Rocket 2.7 20:33:26 10° SW 20:39:03 65° WNW 20:44:46 10° NNE
USA 234 3.3 20:35:33 11° SE 20:41:51 81° NE 20:48:25 10° NW
Cosmos 2026 Rocket 4.0 20:36:19 10° N 20:42:31 63° E 20:48:36 10° SSE
Intercosmos 25 Rocket 3.2 20:44:15 10° S 20:47:18 50° E 20:51:05 10° NNE
Cosmos 1825 2.2 20:45:08 10° N 20:48:55 61° E 20:52:20 12° SSE
SL-16 R/B 2.2 20:49:53 10° S 20:55:27 63° ESE 21:01:04 10° NNE
Cosmos 1862 3.4 20:57:49 10° N 21:01:48 59° E 21:04:33 19° SSE
ATLAS 5 CENTAUR R/B 3.1 20:56:24 10° NNW 21:01:58 41° NE 21:06:11 19° ESE
Cosmos 1634 Rocket 4.3 20:56:25 10° SSW 21:02:42 75° W 21:09:03 10° N
Helios 1B rocket 2.6 20:59:39 10° N 21:03:46 74° WNW 21:07:50 10° SSW
ERS-1 Rocket 3.2 21:02:09 19° SE 21:05:38 52° ENE 21:10:31 10° N
Lacrosse 4 Rocket 1.5 21:01:31 10° NNW 21:05:51 89° WSW 21:08:46 21° SSE
USA 186 3.8 21:04:07 10° SSW 21:06:21 23° W 21:08:43 10° NW
Cosmos 1655 Rocket 4.0 21:02:53 10° N 21:09:19 82° E 21:15:37 10° S
Cosmos 1733 Rocket 3.0 21:06:25 10° N 21:10:54 80° E 21:14:14 17° SSE
ERBS 3.2 21:07:42 10° WNW 21:11:00 42° SW 21:12:44 23° S
Cosmos 1939 Rocket 3.0 21:08:25 13° S 21:12:02 74° WSW 21:16:03 10° NNW
ARGOS 4.0 21:11:28 22° ESE 21:14:00 34° ENE 21:18:49 10° N
Cosmos 1862 Rocket 3.5 21:13:27 10° S 21:17:53 78° E 21:22:23 10° N
SeaSat 1 3.2 21:17:14 24° ESE 21:19:34 39° NE 21:24:09 10° NNW
USA 229 DEB 4.2 21:17:03 10° S 21:23:00 33° ESE 21:29:02 10° NE
USA 229 4.2 21:17:09 10° S 21:23:06 33° ESE 21:29:06 10° NE
Cosmos 1408 3.7 21:20:49 10° NNW 21:24:20 43° W 21:27:28 12° SSW
Cosmos 1992 Rocket 3.9 21:19:44 10° SSW 21:24:58 86° ESE 21:30:15 10° NNE
Cosmos 1844 Rocket 4.2 21:20:54 10° N 21:25:07 21° NE 21:27:24 17° E
Atlas Centaur 2 3.8 21:23:34 10° SW 21:29:40 28° SSE 21:31:32 25° SE
Cosmos 2266 Rocket 4.2 21:24:25 10° N 21:30:32 52° ENE 21:33:36 29° SE
Okean 1-7 4.2 21:31:06 27° E 21:31:06 27° E 21:34:35 10° NNE
Terra 3.6 21:31:11 16° ENE 21:31:57 17° ENE 21:34:53 10° NNE
SL-08 RB Rocket 4.5 21:31:41 32° E 21:32:45 36° ENE 21:36:57 10° N
Abrixas rocket 3.6 21:30:47 10° W 21:33:52 36° NNW 21:35:57 17° NE
MOS 1-B Rocket 4.2 21:32:22 30° SE 21:35:03 50° ENE 21:40:29 10° N
YAOGAN 11 4.1 21:36:20 41° SE 21:37:44 66° ENE 21:42:04 10° N
Cosmos 1703 Rocket 3.8 21:37:03 42° SE 21:37:53 48° E 21:42:09 10° NNE
CZ-4C R/B 4.4 21:36:28 10° NNW 21:41:41 22° NNE 21:46:59 11° ENE
Cosmos 2279 Rocket 4.5 21:37:51 10° SSW 21:44:00 60° W 21:50:11 10° N
Cosmos 2221 Rocket 4.0 21:44:07 41° E 21:44:09 41° E 21:48:19 10° NNE
Cosmos 2219 Rocket 4.2 21:46:58 12° ENE 21:46:58 12° ENE 21:47:45 10° ENE
MetOp-A 4.1 21:47:16 33° SSE 21:49:45 88° WSW 21:55:09 10° NNW
Cosmos 1867 3.6 21:44:57 10° NNW 21:50:25 69° NE 21:52:05 44° ESE
Cosmos 489 Rocket 4.5 21:46:07 10° NNW 21:52:31 89° WSW 21:55:23 35° SSE
H-2A R/B 2.4 21:52:50 41° E 21:53:42 45° ENE 21:58:25 10° N
Meteor 1-14 Rocket 4.2 21:48:05 10° N 21:53:45 74° E 21:55:46 42° SSE
OAO 3 Rocket 4.2 21:52:39 10° WSW 21:56:38 32° SSW 21:56:38 32° SSW
YAOGAN 6 4.2 21:56:56 23° SW 21:58:25 31° W 22:01:41 10° NNW
Cosmos 2237 4.3 22:00:10 47° SE 22:01:01 51° ESE 22:06:33 10° NE
ASTEX 1 4.5 22:03:59 30° ENE 22:03:59 30° ENE 22:08:09 10° NNE
SPOT 5 2.8 22:04:10 51° S 22:05:25 81° WSW 22:10:08 10° NNW
Cosmos 968 Rocket 3.5 22:00:16 10° NNW 22:05:28 79° WSW 22:06:50 50° S
Cosmos 2263 Rocket 2.9 22:00:42 10° NW 22:06:00 46° WSW 22:08:25 29° SSW
Meteor 1-25 Rocket 4.1 22:04:03 10° N 22:09:40 73° E 22:10:48 56° SE
COSMOS 2428 3.0 22:10:12 45° E 22:10:12 45° E 22:15:14 10° NE
Meteor 2-10 Rocket 4.2 22:05:36 14° SSW 22:10:41 62° WNW 22:16:27 10° N
Cosmos 2322 Rocket 3.9 22:06:55 10° WSW 22:11:58 33° NW 22:17:02 10° N
Sich 1 Rocket 4.4 22:11:01 10° NNW 22:15:18 47° W 22:16:31 37° SW
Cosmos 2360 Rocket 2.5 22:16:26 10° SW 22:22:03 66° WNW 22:27:43 10° NNE
H-2A R/B 2.6 22:23:59 48° NE 22:23:59 48° NE 22:27:33 10° N
USA 234 4.5 22:22:54 23° SSW 22:25:15 29° SW 22:30:49 10° WNW
Cosmos 1844 4.1 22:22:22 10° NNW 22:27:51 47° ENE 22:28:20 45° ENE
Meteor 1-20 Rocket 4.1 22:23:45 10° N 22:29:20 87° W 22:30:10 67° S
Cosmos 2322 4.0 22:25:27 17° SW 22:29:55 67° WNW 22:35:38 10° NNE
S3M 4.5 22:32:12 42° E 22:32:12 42° E 22:37:40 10° NNE
Cosmos 1606 4.4 22:38:58 27° NNE 22:38:58 27° NNE 22:40:48 10° NNE
Meteor 2-6 Rocket 4.2 22:39:59 70° ESE 22:40:10 71° E 22:46:07 10° NNE
SPOT 1/Viking Rocket 3.9 22:40:22 51° SW 22:41:03 55° W 22:46:12 10° NNW
IGS 5A 4.4 22:42:18 43° NNE 22:42:18 43° NNE 22:45:15 10° N
Okean 2 Rocket 3.7 22:40:49 10° NNW 22:44:59 53° W 22:44:59 53° W
ATLAS 5 CENTAUR R/B 3.1 22:41:05 10° NW 22:46:48 44° WSW 22:47:45 41° SW
Cosmos 2333 Rocket 3.3 22:52:12 33° ENE 22:52:12 33° ENE 22:55:42 10° NE
Cosmos 2333 4.1 22:51:47 88° E 22:51:47 88° E 22:57:34 10° NNE
Cosmos 1782 4.1 22:53:34 39° NNW 22:53:34 39° NNW 22:56:18 10° N
Landsat 7 4.2 22:54:28 57° WNW 22:54:28 57° WNW 22:58:47 10° NNW
ARGOS 4.4 22:52:58 29° WSW 22:54:14 32° W 22:59:01 10° NNW
SeaSat 1 3.8 22:57:02 30° WSW 22:57:08 30° WSW 23:01:27 10° NW
Cosmos 2237 Rocket 3.7 22:59:46 25° ENE 22:59:46 25° ENE 23:02:28 10° NE
Cosmos 2278 Rocket 2.8 22:54:53 10° NNW 23:00:07 47° NE 23:00:07 47° NE
Cosmos 1417 Rocket 4.4 23:03:56 77° SW 23:04:24 84° W 23:10:48 10° N
Cosmos 1745 Rocket 4.0 22:59:14 10° N 23:05:30 71° ENE 23:05:30 71° ENE
Terra 2.5 23:10:04 51° NW 23:10:04 51° NW 23:13:55 10° NNW
Cosmos 1844 Rocket 2.9 23:03:59 10° NNW 23:09:04 62° W 23:09:04 62° W
NOSS 3-1 (C) 3.8 23:11:31 53° ENE 23:11:31 53° ENE 23:16:32 10° NE
Meteor 1-27 Rocket 3.9 23:12:59 69° NNE 23:12:59 69° NNE 23:17:53 10° N
USA 229 DEB 4.3 23:06:59 10° SW 23:13:40 54° NW 23:20:30 10° NNE
USA 229 4.3 23:07:03 10° SW 23:13:44 55° NW 23:20:35 10° NNE
Atlas Centaur 2 4.4 23:11:29 10° WSW 23:14:12 21° SW 23:14:12 21° SW
NOSS 3-1 (A) 4.1 23:26:28 44° NE 23:26:28 44° NE 23:30:55 10° NE
Cosmos 2219 Rocket 2.5 23:28:37 62° N 23:28:37 62° N 23:33:25 10° NNE
CZ-4C R/B 2.9 23:24:22 10° NNW 23:31:28 70° NE 23:32:09 67° E
H-2A R/B 3.8 23:33:27 21° W 23:33:27 21° W 23:37:06 10° NW
Meteor 1-11 Rocket 4.2 23:28:29 10° NNW 23:33:08 55° WNW 23:33:08 55° WNW
Cosmos 2315 Rocket 4.5 23:46:15 50° NE 23:46:15 50° NE 23:51:06 10° NNE
Cosmos 2297 4.4 23:46:05 10° NNW 23:50:39 48° NNE 23:50:39 48° NNE
COSMOS 2428 4.4 23:52:07 23° W 23:54:16 29° NW 23:59:12 10° N
